Home > Time Zones > World Clock > Weather > China > Wuhan > Past weeks

Flag for China Weather past 2 weeks in Wuhan, Hubei, China

Now
81 °F

Passing clouds.


Feels Like: 83 °F
Forecast: 66 / 83 °F
Wind: 6 mph from Northwest

Location: Wuhan Airport

Current Time: Sep 23, 2014 at 3:13:34 PM

Latest Report: Sep 23, 2014 at 2:00 PM


Visibility: N/A

Pressure: 29.89 "Hg

Humidity: 66%

Dew point: 68 °F

Location of WuhanLocation

Historic Weather in Wuhan — Graph

°F

Wuhan temperature yesterday

Maximum temperature yesterday: 84 °F (at 2:00 PM)
Minimum temperature yesterday: 64 °F (at 5:00 AM)
Average temperature yesterday: 75 °F

Past Weeks' High & Low Weather Summary

 TemperatureHumidityPressure
High90 °F (Sep 11, 3:00 PM)100% (Sep 9, 1:00 AM)30.07 "Hg (Sep 9, 1:00 AM)
Low63 °F (Sep 18, 7:00 AM)43% (Sep 22, 3:00 PM)29.68 "Hg (Sep 8, 2:00 PM)
Average74 °F87%29.87 "Hg
* Reported Sep 8 2:00 PM — Sep 23 2:00 PM, Wuhan, Weather by CustomWeather, © 2014

Note: Actual official high and low records may vary slightly from our data, if they occured in-between our weather recording intervals... More about our weather records

Advertising

Wuhan weather history for previous 24 hours

 ConditionsComfort  
Time TempWeatherWind HumidityBarometerVisibility
2:00 PM
Sep 23
81 °FPassing clouds.6 mph66%29.89 "HgN/A
1:00 PM81 °FPassing clouds.6 mph66%29.89 "HgN/A
12:00 PM79 °FPassing clouds.3 mph70%29.92 "HgN/A
11:00 AM79 °FPassing clouds.3 mph61%29.92 "HgN/A
10:00 AM79 °FPassing clouds.3 mph61%29.95 "HgN/A
9:00 AM75 °FPassing clouds.3 mph74%29.95 "HgN/A
8:00 AM72 °FPassing clouds.6 mph83%29.92 "HgN/A
7:00 AM70 °FSunny.No wind88%29.92 "Hg10 mi
6:00 AM66 °FPassing clouds.3 mph94%29.89 "HgN/A
5:00 AM68 °FPassing clouds.3 mph88%29.89 "HgN/A
4:00 AM68 °FClear.3 mph88%29.89 "Hg10 mi
3:00 AM68 °FClear.3 mph88%29.89 "Hg10 mi
2:00 AM70 °FClear.3 mph83%29.92 "Hg10 mi
1:00 AM72 °FClear.3 mph78%29.92 "Hg10 mi
12:00 AM73 °FClear.6 mph69%29.92 "Hg10 mi
11:00 PM
Sep 22
72 °FClear.8 mph73%29.92 "Hg10 mi
10:00 PM73 °FClear.8 mph69%29.92 "Hg10 mi
9:00 PM73 °FClear.6 mph69%29.92 "Hg10 mi
8:00 PM75 °FPassing clouds.6 mph65%29.89 "HgN/A
7:00 PM77 °FPassing clouds.8 mph61%29.89 "HgN/A
6:00 PM79 °FPassing clouds.6 mph58%29.86 "HgN/A
5:00 PM82 °FPassing clouds.3 mph51%29.86 "HgN/A
4:00 PM84 °FScattered clouds.8 mph45%29.86 "HgN/A
3:00 PM84 °FPassing clouds.8 mph43%29.89 "HgN/A
Weather by CustomWeather, © 2014

See weather overviewHow to use our weather pages